Powrót do katalogu

FENGYUN 1C DEB

AktywnySSO
NORAD 29923·DEBRIS·🇨🇳 China

Wystrzelony May 10, 1999 z Taiyuan Satellite Launch Center

Loading…

Następne Przeloty (najbliższe 24 godziny)

TLE

ŚwieżeSource: Space-Track

Epoka: Sep 14, 2026, 05:54 UTC

1 29923U 99025HV  26257.24609177  .00000478  00000-0  27194-3 0  9993
2 29923  98.6880 262.9268 0018566 104.3925 316.3645 14.14347643 11671

Śledź FENGYUN 1C DEB w czasie rzeczywistym z AllMySat

Download on the App Store